Flag for Austria Weather past 2 weeks in Krems, Lower Austria, Austria

Now
57 °F

Passing clouds.


Feels Like: 56 °F
Forecast: 57 / 77 °F
Wind: 7 mph from West

Location: Tulln Airport

Current Time: Sep 3, 2014 at 2:14:46 AM

Latest Report: Sep 2, 2014 at 10:50 PM


Visibility: 4 mi

Pressure: 30.09 "Hg

Humidity: 100%

Dew point: 57 °F

Location of KremsLocation

Historic Weather in Krems — Graph

°F

Krems temperature yesterday

Maximum temperature yesterday: 57 °F (at 10:50 AM)
Minimum temperature yesterday: 55 °F (at 5:50 AM)
Average temperature yesterday: 57 °F

Past Weeks' High & Low Weather Summary

 TemperatureHumidityPressure
High77 °F (Aug 29, 1:50 PM)100% (Aug 19, 7:50 AM)30.15 "Hg (Aug 19, 7:50 AM)
Low48 °F (Aug 25, 5:50 AM)38% (Aug 25, 3:50 PM)29.74 "Hg (Aug 26, 2:50 PM)
Average62 °F80%29.99 "Hg
* Reported Aug 18 10:50 PM — Sep 2 10:50 PM, Krems, Weather by CustomWeather, © 2014

Note: Actual official high and low records may vary slightly from our data, if they occured in-between our weather recording intervals... More about our weather records

Advertising

Krems weather history for previous 24 hours

 ConditionsComfort  
Time TempWeatherWind HumidityBarometerVisibility
10:50 PM
Sep 2
57 °FPassing clouds.7 mph100%30.09 "Hg4 mi
9:50 PM57 °FLight rain. Fog.8 mph100%30.09 "Hg3 mi
8:50 PM57 °FRain. Fog.10 mph100%30.07 "Hg3 mi
7:50 PM57 °FRain. Fog.8 mph100%30.07 "Hg2 mi
6:50 PM57 °FRain. Fog.9 mph100%30.07 "Hg2 mi
5:50 PM57 °FLight rain. Partly sunny.10 mph100%30.04 "Hg4 mi
4:50 PM57 °FRain. Partly sunny.12 mph100%30.04 "Hg4 mi
3:50 PM57 °FRain. Broken clouds.10 mph77%30.04 "Hg4 mi
2:50 PM57 °FRain. Fog.13 mph100%30.04 "Hg3 mi
1:50 PM57 °FRain. Fog.13 mph100%30.04 "Hg3 mi
12:50 PM57 °FRain. Fog.13 mph100%30.04 "Hg2 mi
11:50 AM57 °FRain. Fog.13 mph94%30.04 "Hg2 mi
10:50 AM57 °FLight rain. Fog.14 mph94%30.04 "Hg2 mi
9:50 AM55 °FLight rain. Fog.14 mph100%30.04 "Hg1 mi
8:50 AM55 °FLight rain. Fog.14 mph100%30.01 "Hg1 mi
7:50 AM55 °FLight rain. Fog.16 mph100%30.01 "Hg1 mi
6:50 AM55 °FLight rain. Fog.13 mph100%30.01 "Hg1 mi
5:50 AM55 °FLight rain. Partly cloudy.14 mph100%30.01 "Hg4 mi
Weather by CustomWeather, © 2014

See weather overviewHow to use our weather pages